Location: Diebersbach
(48.5163°N, 8.0558°E)
Time: 18:30:17
(UTC+00:00)

USA 281 - Pass Details

Date: 30 October 2021
Orbit: 1078 x 1081 km, 106.0° (Epoch: 25 November)

Event Time Altitude Azimuth Distance (km) Brightness Sun altitude
Rises 04:34:34 0° 78° (ENE) 3,880 7.7 -16.4°
Reaches altitude 10° 04:38:41 10° 53° (NE) 2,926 6.2 -15.7°
Maximum altitude 04:41:24 13° 28° (NNE) 2,708 5.6 -15.3°
Drops below altitude 10° 04:44:06 10° 3° (N) 2,929 5.5 -14.8°
Sets 04:48:14 0° 338° (NNW) 3,887 5.9 -14.1°
